Terug naar catalogus

STARLINK-3750

ActiefCommunicatieVLEO
NORAD 52311·PAYLOAD·🇺🇸 United States

Gelanceerd Apr 21, 2022 vanaf Cape Canaveral Space Force Station

Loading…

Volgende Passages (komende 24 uur)

TLE

VersSource: CelesTrak SupGP

Epoch: Sep 15, 2026, 01:24 UTC

1 52311C 22041BC  26258.05881944  .00039505  00000+0  11985-2 0  2588
2 52311  53.1570 307.3621 0001179  92.2241  74.3229 15.33536162    18

Volg STARLINK-3750 in realtime met AllMySat

Download on the App Store